,,,PA_Meas_PMT16A,,PR_Meas_QMR101_102,,RH_Meas_QMH101,,SR_Meas_QMS101,,TA_Meas_QMH101,,GenWind,,GenWind,
date,time,status,PA,status,PR,status,RH,status,SR,status,TA,status,DirAvg,status,SpdAvg,
2010-04-30, 00:00:04,VALID,1004.05,VALID,0,VALID,91.3418,VALID,0,VALID,24.5209,VALID,253,VALID,0.769922,
2010-04-30, 00:01:04,VALID,1004.05,VALID,0,VALID,91.3037,VALID,0,VALID,24.5385,VALID,253,VALID,1.40273,
2010-04-30, 00:02:04,VALID,1004.03,VALID,0,VALID,91.3418,VALID,0,VALID,24.5599,VALID,250,VALID,0.0191406,
2010-04-30, 00:03:04,VALID,1004.05,VALID,0,VALID,91.3037,VALID,0,VALID,24.5599,VALID,250,VALID,0,
2010-04-30, 00:04:04,VALID,1004.05,VALID,0,VALID,91.3266,VALID,0,VALID,24.5599,VALID,282,VALID,0.138281,
2010-04-30, 00:05:04,VALID,1004.05,VALID,0,VALID,91.3494,VALID,0,VALID,24.5599,VALID,282,VALID,0.0554687,
2010-04-30, 00:06:04,VALID,1004.06,VALID,0,VALID,91.38,VALID,0,VALID,24.5209,VALID,282,VALID,0.368359,
2010-04-30, 00:07:04,VALID,1004.03,VALID,0,VALID,91.441,VALID,0,VALID,24.5209,VALID,282,VALID,0.175391,
2010-04-30, 00:08:04,VALID,1004.06,VALID,0,VALID,91.5249,VALID,0,VALID,24.4995,VALID,282,VALID,0,
2010-04-30, 00:09:04,VALID,1004.03,VALID,0,VALID,91.5554,VALID,0,VALID,24.5013,VALID,329,VALID,0.630469,
2010-04-30, 00:10:04,VALID,1004.01,VALID,0,VALID,91.5326,VALID,0,VALID,24.48,VALID,335,VALID,0.604297,
2010-04-30, 00:11:04,VALID,1004.02,VALID,0,VALID,91.5097,VALID,0,VALID,24.48,VALID,312,VALID,0.536328,
2010-04-30, 00:12:04,VALID,1003.95,VALID,0,VALID,91.5173,VALID,0,VALID,24.5013,VALID,347,VALID,0.626562,
2010-04-30, 00:13:04,VALID,1003.97,VALID,0,VALID,91.5173,VALID,0,VALID,24.5013,VALID,337,VALID,0.710156,
2010-04-30, 00:14:04,VALID,1003.92,VALID,0,VALID,91.5097,VALID,0,VALID,24.48,VALID,357,VALID,1.01016,
2010-04-30, 00:15:04,VALID,1003.92,VALID,0,VALID,91.5783,VALID,0,VALID,24.5209,VALID,297,VALID,0.914063,
2010-04-30, 00:16:04,VALID,1003.89,VALID,0,VALID,91.5173,VALID,0,VALID,24.5209,VALID,299,VALID,1.12188,
2010-04-30, 00:17:04,VALID,1003.87,VALID,0,VALID,91.4563,VALID,0,VALID,24.5385,VALID,311,VALID,0.606641,
2010-04-30, 00:18:04,VALID,1003.88,VALID,0,VALID,91.4639,VALID,0,VALID,24.5385,VALID,313,VALID,1.13828,
2010-04-30, 00:19:04,VALID,1003.91,VALID,0,VALID,91.4486,VALID,0,VALID,24.5599,VALID,281,VALID,0.447656,
2010-04-30, 00:20:04,VALID,1003.88,VALID,0,VALID,91.4715,VALID,0,VALID,24.558,VALID,318,VALID,0.876562,
2010-04-30, 00:21:04,VALID,1003.86,VALID,0,VALID,91.4486,VALID,0,VALID,24.5794,VALID,344,VALID,1.21211,
2010-04-30, 00:22:04,VALID,1003.85,VALID,0,VALID,91.4257,VALID,0,VALID,24.5599,VALID,317,VALID,1.37109,
2010-04-30, 00:23:04,VALID,1003.82,VALID,0,VALID,91.3494,VALID,0,VALID,24.5989,VALID,325,VALID,0.924219,
2010-04-30, 00:24:04,VALID,1003.87,VALID,0,VALID,91.3189,VALID,0,VALID,24.5989,VALID,307,VALID,0.621875,
2010-04-30, 00:25:04,VALID,1003.88,VALID,0,VALID,91.3266,VALID,0,VALID,24.5775,VALID,303,VALID,0.303516,
2010-04-30, 00:26:04,VALID,1003.88,VALID,0,VALID,91.3266,VALID,0,VALID,24.5775,VALID,314,VALID,0.398047,
2010-04-30, 00:27:04,VALID,1003.88,VALID,0,VALID,91.3418,VALID,0,VALID,24.5385,VALID,325,VALID,0,
2010-04-30, 00:28:04,VALID,1003.87,VALID,0,VALID,91.3647,VALID,0,VALID,24.5599,VALID,306,VALID,0.517578,
2010-04-30, 00:29:04,VALID,1003.86,VALID,0,VALID,91.4028,VALID,0,VALID,24.519,VALID,306,VALID,0.313281,
2010-04-30, 00:30:04,VALID,1003.85,VALID,0,VALID,91.3876,VALID,0,VALID,24.5385,VALID,306,VALID,0.342969,
2010-04-30, 00:31:04,VALID,1003.81,VALID,0,VALID,91.3571,VALID,0,VALID,24.519,VALID,29,VALID,1.11797,
2010-04-30, 00:32:04,VALID,1003.76,VALID,0,VALID,91.3494,VALID,0,VALID,24.4995,VALID,346,VALID,0.624609,
2010-04-30, 00:33:04,VALID,1003.74,VALID,0,VALID,91.3266,VALID,0,VALID,24.5404,VALID,346,VALID,0.289844,
2010-04-30, 00:34:04,VALID,1003.74,VALID,0,VALID,91.2808,VALID,0,VALID,24.5404,VALID,347,VALID,0.250781,
2010-04-30, 00:35:04,VALID,1003.68,VALID,0,VALID,91.2731,VALID,0,VALID,24.5404,VALID,350,VALID,0.6625,
2010-04-30, 00:36:04,VALID,1003.67,VALID,0,VALID,91.2731,VALID,0,VALID,24.519,VALID,323,VALID,0.350781,
2010-04-30, 00:37:04,VALID,1003.69,VALID,0,VALID,91.3189,VALID,0,VALID,24.5404,VALID,324,VALID,0.386719,
2010-04-30, 00:38:04,VALID,1003.67,VALID,0,VALID,91.3037,VALID,0,VALID,24.4995,VALID,312,VALID,1.10234,
2010-04-30, 00:39:04,VALID,1003.69,VALID,0,VALID,91.2731,VALID,0,VALID,24.519,VALID,300,VALID,0.685156,
2010-04-30, 00:40:04,VALID,1003.69,VALID,0,VALID,91.235,VALID,0,VALID,24.519,VALID,293,VALID,0.548437,
2010-04-30, 00:41:04,VALID,1003.66,VALID,0,VALID,91.1816,VALID,0,VALID,24.558,VALID,283,VALID,0.654688,
2010-04-30, 00:42:04,VALID,1003.66,VALID,0,VALID,91.1434,VALID,0,VALID,24.5775,VALID,244,VALID,0.475391,
2010-04-30, 00:43:04,VALID,1003.66,VALID,0,VALID,91.0977,VALID,0,VALID,24.5989,VALID,213,VALID,0.208203,
2010-04-30, 00:44:04,VALID,1003.66,VALID,0,VALID,91.0977,VALID,0,VALID,24.5775,VALID,213,VALID,0,
2010-04-30, 00:45:04,VALID,1003.63,VALID,0,VALID,91.1282,VALID,0,VALID,24.5794,VALID,213,VALID,0,
2010-04-30, 00:46:04,VALID,1003.63,VALID,0,VALID,91.174,VALID,0,VALID,24.5385,VALID,168,VALID,0.358203,
2010-04-30, 00:47:04,VALID,1003.59,VALID,0,VALID,91.1511,VALID,0,VALID,24.519,VALID,95,VALID,0.242969,
2010-04-30, 00:48:04,VALID,1003.59,VALID,0,VALID,91.1282,VALID,0,VALID,24.5209,VALID,95,VALID,0.226172,
2010-04-30, 00:49:04,VALID,1003.6,VALID,0,VALID,91.1511,VALID,0,VALID,24.5209,VALID,95,VALID,0,
2010-04-30, 00:50:04,VALID,1003.54,VALID,0,VALID,91.1053,VALID,0,VALID,24.4995,VALID,289,VALID,1.10469,
2010-04-30, 00:51:04,VALID,1003.5,VALID,0,VALID,90.968,VALID,0,VALID,24.5404,VALID,249,VALID,0.427734,
2010-04-30, 00:52:04,VALID,1003.48,VALID,0,VALID,90.8535,VALID,0,VALID,24.558,VALID,245,VALID,0.0570313,
2010-04-30, 00:53:04,VALID,1003.48,VALID,0,VALID,90.7085,VALID,0,VALID,24.5599,VALID,359,VALID,0.848828,
2010-04-30, 00:54:04,VALID,1003.45,VALID,0,VALID,90.6857,VALID,0,VALID,24.5794,VALID,4,VALID,0.23125,
2010-04-30, 00:55:04,VALID,1003.43,VALID,0,VALID,90.6323,VALID,0,VALID,24.5599,VALID,351,VALID,0.771484,
2010-04-30, 00:56:04,VALID,1003.41,VALID,0,VALID,90.678,VALID,0,VALID,24.558,VALID,353,VALID,0.844141,
2010-04-30, 00:57:04,VALID,1003.4,VALID,0,VALID,90.556,VALID,0,VALID,24.5599,VALID,4,VALID,1.28359,
2010-04-30, 00:58:04,VALID,1003.37,VALID,0,VALID,90.4491,VALID,0,VALID,24.5599,VALID,9,VALID,1.06641,
2010-04-30, 00:59:04,VALID,1003.39,VALID,0,VALID,90.35,VALID,0,VALID,24.558,VALID,208,VALID,0,
2010-04-30, 01:00:04,VALID,1003.39,VALID,0,VALID,90.3194,VALID,0,VALID,24.558,VALID,351,VALID,0.808203,
2010-04-30, 01:01:04,VALID,1003.39,VALID,0,VALID,90.3576,VALID,0,VALID,24.558,VALID,357,VALID,1.11133,
2010-04-30, 01:02:04,VALID,1003.37,VALID,0,VALID,90.3347,VALID,0,VALID,24.5385,VALID,14,VALID,1.17578,
2010-04-30, 01:03:04,VALID,1003.34,VALID,0,VALID,90.266,VALID,0,VALID,24.5599,VALID,350,VALID,1.60469,
2010-04-30, 01:04:04,VALID,1003.35,VALID,0,VALID,90.1668,VALID,0,VALID,24.5794,VALID,355,VALID,0.982031,
2010-04-30, 01:05:04,VALID,1003.33,VALID,0,VALID,90.0371,VALID,0,VALID,24.5989,VALID,16,VALID,0.83125,
2010-04-30, 01:06:04,VALID,1003.3,VALID,0,VALID,89.9456,VALID,0,VALID,24.5989,VALID,9,VALID,1.18828,
2010-04-30, 01:07:04,VALID,1003.3,VALID,0,VALID,89.793,VALID,0,VALID,24.638,VALID,23,VALID,1.08281,
2010-04-30, 01:08:05,VALID,1003.32,VALID,0,VALID,89.7472,VALID,0,VALID,24.6166,VALID,358,VALID,0.981641,
2010-04-30, 01:09:05,VALID,1003.29,VALID,0,VALID,89.7167,VALID,0,VALID,24.638,VALID,359,VALID,1.00508,
2010-04-30, 01:10:05,VALID,1003.26,VALID,0,VALID,89.6557,VALID,0,VALID,24.6361,VALID,2,VALID,0.631641,
2010-04-30, 01:11:05,VALID,1003.27,VALID,0,VALID,89.7243,VALID,0,VALID,24.638,VALID,2,VALID,0.428906,
2010-04-30, 01:12:05,VALID,1003.23,VALID,0,VALID,89.8006,VALID,0,VALID,24.6184,VALID,2,VALID,0.530469,
2010-04-30, 01:13:05,VALID,1003.21,VALID,0,VALID,89.8693,VALID,0,VALID,24.5989,VALID,1,VALID,0.270703,
2010-04-30, 01:14:05,VALID,1003.18,VALID,0,VALID,89.793,VALID,0,VALID,24.5971,VALID,1,VALID,0.289453,
2010-04-30, 01:15:05,VALID,1003.13,VALID,0,VALID,89.8083,VALID,0,VALID,24.5989,VALID,1,VALID,0,
2010-04-30, 01:16:05,VALID,1003.1,VALID,0,VALID,89.8159,VALID,0,VALID,24.5989,VALID,1,VALID,0.346484,
2010-04-30, 01:17:05,VALID,1003.04,VALID,0,VALID,89.8006,VALID,0,VALID,24.5989,VALID,1,VALID,0.246484,
2010-04-30, 01:18:05,VALID,1003.03,VALID,0,VALID,89.8311,VALID,0,VALID,24.558,VALID,1,VALID,0.125391,
2010-04-30, 01:19:05,VALID,1003,VALID,0,VALID,89.8693,VALID,0,VALID,24.5794,VALID,1,VALID,0.366797,
2010-04-30, 01:20:05,VALID,1002.97,VALID,0,VALID,90.1974,VALID,0,VALID,24.5989,VALID,112,VALID,0.540234,
2010-04-30, 01:21:05,VALID,1002.94,VALID,0,VALID,90.4186,VALID,0,VALID,24.558,VALID,113,VALID,0.939844,
2010-04-30, 01:22:05,VALID,1002.96,VALID,0,VALID,90.617,VALID,0,VALID,24.519,VALID,122,VALID,1.31914,
2010-04-30, 01:23:05,VALID,1002.95,VALID,0,VALID,90.8535,VALID,0,VALID,24.4995,VALID,126,VALID,0.933594,
2010-04-30, 01:24:05,VALID,1002.99,VALID,0,VALID,91.0366,VALID,0,VALID,24.5013,VALID,123,VALID,1.19844,
2010-04-30, 01:25:05,VALID,1003,VALID,0,VALID,91.1892,VALID,0,VALID,24.4623,VALID,124,VALID,1.09297,
2010-04-30, 01:26:05,VALID,1002.98,VALID,0,VALID,91.3266,VALID,0,VALID,24.4623,VALID,132,VALID,1.14531,
2010-04-30, 01:27:05,VALID,1003.01,VALID,0,VALID,91.4791,VALID,0,VALID,24.4428,VALID,126,VALID,1.15547,
2010-04-30, 01:28:05,VALID,1003,VALID,0,VALID,91.5783,VALID,0,VALID,24.4019,VALID,130,VALID,1.49414,
2010-04-30, 01:29:05,VALID,1003.01,VALID,0,VALID,91.6546,VALID,0,VALID,24.3824,VALID,119,VALID,1.55352,
2010-04-30, 01:30:05,VALID,1003.01,VALID,0,VALID,91.7309,VALID,0,VALID,24.3824,VALID,120,VALID,1.45195,
2010-04-30, 01:31:05,VALID,1003.02,VALID,0,VALID,91.7996,VALID,0,VALID,24.3824,VALID,116,VALID,1.49961,
2010-04-30, 01:32:05,VALID,1003.02,VALID,0,VALID,91.8301,VALID,0,VALID,24.3842,VALID,115,VALID,1.25234,
2010-04-30, 01:33:05,VALID,1003.05,VALID,0,VALID,91.8988,VALID,0,VALID,24.3842,VALID,104,VALID,1.41992,
2010-04-30, 01:34:05,VALID,1003.05,VALID,0,VALID,91.9751,VALID,0,VALID,24.3647,VALID,108,VALID,1.09766,
2010-04-30, 01:35:05,VALID,1003.07,VALID,0,VALID,92.0285,VALID,0,VALID,24.3842,VALID,109,VALID,1.47305,
2010-04-30, 01:36:05,VALID,1003.05,VALID,0,VALID,92.0743,VALID,0,VALID,24.3647,VALID,105,VALID,1.8043,
2010-04-30, 01:37:05,VALID,1003.09,VALID,0,VALID,92.0666,VALID,0,VALID,24.3647,VALID,108,VALID,1.80156,
2010-04-30, 01:38:05,VALID,1003.12,VALID,0,VALID,92.0895,VALID,0,VALID,24.3629,VALID,105,VALID,2.01875,
2010-04-30, 01:39:05,VALID,1003.17,VALID,0,VALID,92.0895,VALID,0,VALID,24.3842,VALID,106,VALID,1.30469,
2010-04-30, 01:40:05,VALID,1003.14,VALID,0,VALID,92.0514,VALID,0,VALID,24.3433,VALID,112,VALID,1.68438,
2010-04-30, 01:41:05,VALID,1003.19,VALID,0,VALID,91.9903,VALID,0,VALID,24.3433,VALID,107,VALID,2.17656,
2010-04-30, 01:42:05,VALID,1003.19,VALID,0,VALID,91.9903,VALID,0,VALID,24.3842,VALID,112,VALID,1.52461,
2010-04-30, 01:43:05,VALID,1003.18,VALID,0,VALID,91.9598,VALID,0,VALID,24.3647,VALID,109,VALID,2.24531,
2010-04-30, 01:44:05,VALID,1003.19,VALID,0,VALID,91.9217,VALID,0,VALID,24.3842,VALID,113,VALID,1.85898,
2010-04-30, 01:45:05,VALID,1003.21,VALID,0,VALID,91.8683,VALID,0,VALID,24.3842,VALID,111,VALID,2.11055,
2010-04-30, 01:46:05,VALID,1003.22,VALID,0,VALID,91.7691,VALID,0,VALID,24.3824,VALID,116,VALID,1.76445,
2010-04-30, 01:47:05,VALID,1003.19,VALID,0,VALID,91.7157,VALID,0,VALID,24.3824,VALID,109,VALID,1.38281,
2010-04-30, 01:48:05,VALID,1003.22,VALID,0.5,VALID,91.6012,VALID,0,VALID,24.4037,VALID,112,VALID,1.68242,
2010-04-30, 01:49:05,VALID,1003.22,VALID,0,VALID,91.5631,VALID,0,VALID,24.4233,VALID,107,VALID,2.01133,
2010-04-30, 01:50:05,VALID,1003.2,VALID,0,VALID,91.4715,VALID,0,VALID,24.4019,VALID,105,VALID,2.31133,
2010-04-30, 01:51:05,VALID,1003.21,VALID,0,VALID,91.3876,VALID,0,VALID,24.4428,VALID,102,VALID,2.0168,
2010-04-30, 01:52:05,VALID,1003.21,VALID,0,VALID,91.2121,VALID,0,VALID,24.4623,VALID,104,VALID,2.26406,
2010-04-30, 01:53:05,VALID,1003.21,VALID,0,VALID,91.1053,VALID,0,VALID,24.4409,VALID,104,VALID,1.87266,
2010-04-30, 01:54:05,VALID,1003.17,VALID,0,VALID,90.9985,VALID,0,VALID,24.4604,VALID,103,VALID,1.84531,
2010-04-30, 01:55:05,VALID,1003.18,VALID,0,VALID,90.9832,VALID,0,VALID,24.5013,VALID,109,VALID,1.4793,
2010-04-30, 01:56:05,VALID,1003.19,VALID,0,VALID,90.8917,VALID,0,VALID,24.4818,VALID,109,VALID,1.5543,
2010-04-30, 01:57:05,VALID,1003.17,VALID,0,VALID,90.8611,VALID,0,VALID,24.5013,VALID,107,VALID,1.24414,
2010-04-30, 01:58:05,VALID,1003.18,VALID,0,VALID,90.7696,VALID,0,VALID,24.5013,VALID,107,VALID,1.18359,
2010-04-30, 01:59:05,VALID,1003.17,VALID,0,VALID,90.7085,VALID,0,VALID,24.48,VALID,96,VALID,1.14531,
2010-04-30, 02:00:05,VALID,1003.17,VALID,0,VALID,90.7925,VALID,0,VALID,24.5013,VALID,96,VALID,0.760547,
2010-04-30, 02:01:05,VALID,1003.14,VALID,0,VALID,90.7849,VALID,0,VALID,24.5013,VALID,94,VALID,0.826172,
2010-04-30, 02:02:05,VALID,1003.15,VALID,0,VALID,90.7772,VALID,0,VALID,24.4818,VALID,87,VALID,1.07305,
2010-04-30, 02:03:05,VALID,1003.11,VALID,0,VALID,90.7391,VALID,0,VALID,24.4818,VALID,91,VALID,0.9875,
2010-04-30, 02:04:05,VALID,1003.16,VALID,0,VALID,90.8001,VALID,0,VALID,24.48,VALID,91,VALID,0.572266,
2010-04-30, 02:05:05,VALID,1003.14,VALID,0,VALID,90.8383,VALID,0,VALID,24.48,VALID,91,VALID,0.809375,
2010-04-30, 02:06:05,VALID,1003.11,VALID,0,VALID,90.884,VALID,0,VALID,24.48,VALID,91,VALID,0.741406,
2010-04-30, 02:07:05,VALID,1003.11,VALID,0,VALID,90.968,VALID,0,VALID,24.4818,VALID,91,VALID,0.662109,
2010-04-30, 02:08:05,VALID,1003.09,VALID,0,VALID,90.9222,VALID,0,VALID,24.4604,VALID,90,VALID,1.14336,
2010-04-30, 02:09:05,VALID,1003.09,VALID,0,VALID,90.8993,VALID,0,VALID,24.4604,VALID,84,VALID,1.00078,
2010-04-30, 02:10:05,VALID,1003.1,VALID,0,VALID,90.884,VALID,0,VALID,24.5013,VALID,91,VALID,1.27891,
2010-04-30, 02:11:05,VALID,1003.1,VALID,0,VALID,90.8764,VALID,0,VALID,24.4818,VALID,96,VALID,1.5582,
2010-04-30, 02:12:05,VALID,1003.07,VALID,0,VALID,90.9222,VALID,0,VALID,24.4818,VALID,97,VALID,1.47227,
2010-04-30, 02:13:05,VALID,1003.06,VALID,0,VALID,90.8917,VALID,0,VALID,24.5013,VALID,100,VALID,1.65156,
2010-04-30, 02:14:05,VALID,1003.07,VALID,0,VALID,90.884,VALID,0,VALID,24.48,VALID,101,VALID,1.69805,
2010-04-30, 02:15:05,VALID,1003.04,VALID,0,VALID,90.9451,VALID,0,VALID,24.5013,VALID,103,VALID,1.48789,
2010-04-30, 02:16:05,VALID,1003.03,VALID,0,VALID,91.09,VALID,0,VALID,24.48,VALID,103,VALID,1.22734,
2010-04-30, 02:17:05,VALID,1003.01,VALID,0,VALID,91.1663,VALID,0,VALID,24.5013,VALID,104,VALID,1.28477,
2010-04-30, 02:18:05,VALID,1003,VALID,0,VALID,91.2426,VALID,0,VALID,24.4818,VALID,101,VALID,1.57266,
2010-04-30, 02:19:05,VALID,1002.97,VALID,0,VALID,91.3418,VALID,0,VALID,24.4428,VALID,102,VALID,1.12578,
2010-04-30, 02:20:05,VALID,1002.93,VALID,0,VALID,91.4486,VALID,0,VALID,24.4428,VALID,103,VALID,1.18867,
2010-04-30, 02:21:05,VALID,1002.93,VALID,0,VALID,91.5402,VALID,0,VALID,24.4233,VALID,108,VALID,1.42891,
2010-04-30, 02:22:05,VALID,1002.91,VALID,0,VALID,91.5783,VALID,0,VALID,24.4233,VALID,111,VALID,1.59609,
2010-04-30, 02:23:05,VALID,1002.91,VALID,0.5,VALID,91.6165,VALID,0,VALID,24.4037,VALID,107,VALID,1.56328,
2010-04-30, 02:24:05,VALID,1002.88,VALID,0,VALID,91.7157,VALID,0,VALID,24.4233,VALID,109,VALID,1.23867,
2010-04-30, 02:25:05,VALID,1002.87,VALID,0,VALID,91.7157,VALID,0,VALID,24.3824,VALID,111,VALID,1.3418,
2010-04-30, 02:26:05,VALID,1002.86,VALID,0,VALID,91.792,VALID,0,VALID,24.3824,VALID,109,VALID,1.27188,
2010-04-30, 02:27:05,VALID,1002.82,VALID,0,VALID,91.8377,VALID,0,VALID,24.4037,VALID,106,VALID,1.07148,
2010-04-30, 02:28:05,VALID,1002.83,VALID,0,VALID,91.914,VALID,0,VALID,24.3824,VALID,116,VALID,0.821875,
2010-04-30, 02:29:05,VALID,1002.81,VALID,0,VALID,91.998,VALID,0,VALID,24.3842,VALID,116,VALID,0.800391,
2010-04-30, 02:30:05,VALID,1002.81,VALID,0,VALID,92.059,VALID,0,VALID,24.3647,VALID,105,VALID,0.514844,
2010-04-30, 02:31:05,VALID,1002.82,VALID,0,VALID,92.0895,VALID,0,VALID,24.3842,VALID,117,VALID,0.807813,
2010-04-30, 02:32:05,VALID,1002.8,VALID,0.5,VALID,92.1124,VALID,0,VALID,24.3433,VALID,120,VALID,0.655078,
2010-04-30, 02:33:05,VALID,1002.78,VALID,0,VALID,92.1429,VALID,0,VALID,24.3433,VALID,110,VALID,0.698047,
2010-04-30, 02:34:05,VALID,1002.78,VALID,0,VALID,92.1506,VALID,0,VALID,24.3238,VALID,107,VALID,0.617188,
2010-04-30, 02:35:05,VALID,1002.74,VALID,0,VALID,92.1506,VALID,0,VALID,24.3238,VALID,107,VALID,0.3625,
2010-04-30, 02:36:05,VALID,1002.75,VALID,0,VALID,92.1963,VALID,0,VALID,24.3452,VALID,107,VALID,0.241406,
2010-04-30, 02:37:05,VALID,1002.68,VALID,0,VALID,92.2116,VALID,0,VALID,24.3238,VALID,107,VALID,0.0402344,
2010-04-30, 02:38:05,VALID,1002.68,VALID,0,VALID,92.2345,VALID,0,VALID,24.3257,VALID,107,VALID,0,
2010-04-30, 02:39:05,VALID,1002.65,VALID,0,VALID,92.2803,VALID,0,VALID,24.3062,VALID,107,VALID,0,
2010-04-30, 02:40:05,VALID,1002.63,VALID,0,VALID,92.3184,VALID,0,VALID,24.3062,VALID,107,VALID,0,
2010-04-30, 02:41:05,VALID,1002.59,VALID,0,VALID,92.3413,VALID,0,VALID,24.2848,VALID,107,VALID,0,
2010-04-30, 02:42:05,VALID,1002.58,VALID,0,VALID,92.3642,VALID,0,VALID,24.2848,VALID,107,VALID,0.402344,
2010-04-30, 02:43:05,VALID,1002.58,VALID,0,VALID,92.4023,VALID,0,VALID,24.2866,VALID,91,VALID,0.628906,
2010-04-30, 02:44:05,VALID,1002.59,VALID,0,VALID,92.4252,VALID,0,VALID,24.2848,VALID,84,VALID,0.697266,
2010-04-30, 02:45:05,VALID,1002.56,VALID,0,VALID,92.4328,VALID,0,VALID,24.2866,VALID,83,VALID,0.557031,
2010-04-30, 02:46:05,VALID,1002.55,VALID,0.5,VALID,92.4405,VALID,0,VALID,24.2866,VALID,81,VALID,0.574609,
2010-04-30, 02:47:05,VALID,1002.55,VALID,0,VALID,92.4557,VALID,0,VALID,24.2866,VALID,75,VALID,0.526563,
2010-04-30, 02:48:05,VALID,1002.52,VALID,0,VALID,92.4557,VALID,0,VALID,24.2653,VALID,75,VALID,0.689453,
2010-04-30, 02:49:05,VALID,1002.53,VALID,0,VALID,92.4557,VALID,0,VALID,24.2866,VALID,75,VALID,0.829297,
2010-04-30, 02:50:05,VALID,1002.49,VALID,0,VALID,92.471,VALID,0,VALID,24.2653,VALID,75,VALID,0.575,
2010-04-30, 02:51:05,VALID,1002.48,VALID,0,VALID,92.4634,VALID,0,VALID,24.2458,VALID,90,VALID,0.566797,
2010-04-30, 02:52:05,VALID,1002.47,VALID,0,VALID,92.471,VALID,0,VALID,24.2866,VALID,88,VALID,0.705078,
2010-04-30, 02:53:05,VALID,1002.45,VALID,0,VALID,92.4634,VALID,0,VALID,24.2458,VALID,84,VALID,0.925,
2010-04-30, 02:54:05,VALID,1002.46,VALID,0,VALID,92.4557,VALID,0,VALID,24.2458,VALID,81,VALID,0.714453,
2010-04-30, 02:55:05,VALID,1002.41,VALID,0,VALID,92.4557,VALID,0,VALID,24.2458,VALID,82,VALID,0.951953,
2010-04-30, 02:56:05,VALID,1002.42,VALID,0,VALID,92.4634,VALID,0,VALID,24.2671,VALID,87,VALID,0.776172,
2010-04-30, 02:57:05,VALID,1002.4,VALID,0,VALID,92.4481,VALID,0,VALID,24.2671,VALID,87,VALID,0.611328,
2010-04-30, 02:58:05,VALID,1002.43,VALID,0,VALID,92.4405,VALID,0,VALID,24.2458,VALID,75,VALID,0.550391,
2010-04-30, 02:59:05,VALID,1002.42,VALID,0,VALID,92.4481,VALID,0,VALID,24.2458,VALID,75,VALID,0.558594,
2010-04-30, 03:00:05,VALID,1002.44,VALID,0,VALID,92.471,VALID,0,VALID,24.2263,VALID,75,VALID,0.078125,
2010-04-30, 03:01:05,VALID,1002.41,VALID,0.5,VALID,92.471,VALID,0,VALID,24.2281,VALID,75,VALID,0,
2010-04-30, 03:02:05,VALID,1002.38,VALID,0,VALID,92.4786,VALID,0,VALID,24.2263,VALID,76,VALID,0,
2010-04-30, 03:03:05,VALID,1002.38,VALID,0,VALID,92.5244,VALID,0,VALID,24.2067,VALID,79,VALID,0,
2010-04-30, 03:04:05,VALID,1002.38,VALID,0,VALID,92.532,VALID,0,VALID,24.2281,VALID,78,VALID,0,
2010-04-30, 03:05:05,VALID,1002.37,VALID,0,VALID,92.5549,VALID,0,VALID,24.2263,VALID,61,VALID,0,
2010-04-30, 03:06:05,VALID,1002.38,VALID,0,VALID,92.5549,VALID,0,VALID,24.2067,VALID,51,VALID,0,
2010-04-30, 03:07:05,VALID,1002.36,VALID,0,VALID,92.5397,VALID,0,VALID,24.2086,VALID,51,VALID,0,
2010-04-30, 03:08:05,VALID,1002.37,VALID,0,VALID,92.5626,VALID,0,VALID,24.2086,VALID,47,VALID,0,
2010-04-30, 03:09:05,VALID,1002.42,VALID,0,VALID,92.5168,VALID,0,VALID,24.2086,VALID,44,VALID,0,
2010-04-30, 03:10:05,VALID,1002.4,VALID,0,VALID,92.5168,VALID,0,VALID,24.2086,VALID,44,VALID,0,
2010-04-30, 03:11:05,VALID,1002.4,VALID,0,VALID,92.5244,VALID,0,VALID,24.2086,VALID,32,VALID,0,
2010-04-30, 03:12:05,VALID,1002.45,VALID,0,VALID,92.5778,VALID,0,VALID,24.1872,VALID,16,VALID,0,
2010-04-30, 03:13:05,VALID,1002.41,VALID,0,VALID,92.5778,VALID,0,VALID,24.2281,VALID,16,VALID,0,
2010-04-30, 03:14:05,VALID,1002.45,VALID,0,VALID,92.6007,VALID,0,VALID,24.2281,VALID,15,VALID,0,
2010-04-30, 03:15:05,VALID,1002.45,VALID,0,VALID,92.6007,VALID,0,VALID,24.2281,VALID,15,VALID,0,
2010-04-30, 03:16:05,VALID,1002.45,VALID,0.5,VALID,92.6007,VALID,0,VALID,24.1872,VALID,10,VALID,0,
2010-04-30, 03:17:05,VALID,1002.48,VALID,0,VALID,92.5931,VALID,0,VALID,24.2086,VALID,10,VALID,0,
2010-04-30, 03:18:05,VALID,1002.47,VALID,0,VALID,92.6541,VALID,0,VALID,24.1872,VALID,10,VALID,0,
2010-04-30, 03:19:05,VALID,1002.48,VALID,0,VALID,92.6923,VALID,0,VALID,24.2067,VALID,10,VALID,0,
2010-04-30, 03:20:05,VALID,1002.51,VALID,0,VALID,92.7151,VALID,0,VALID,24.1872,VALID,4,VALID,0,
2010-04-30, 03:21:05,VALID,1002.51,VALID,0,VALID,92.7228,VALID,0,VALID,24.2067,VALID,4,VALID,0,
2010-04-30, 03:22:05,VALID,1002.49,VALID,0,VALID,92.738,VALID,0,VALID,24.2086,VALID,4,VALID,0,
2010-04-30, 03:23:05,VALID,1002.52,VALID,0,VALID,92.738,VALID,0,VALID,24.2086,VALID,4,VALID,0,
2010-04-30, 03:24:05,VALID,1002.54,VALID,0,VALID,92.7075,VALID,0,VALID,24.2086,VALID,4,VALID,0,
2010-04-30, 03:25:05,VALID,1002.56,VALID,0,VALID,92.6694,VALID,0,VALID,24.1677,VALID,4,VALID,0,
2010-04-30, 03:26:05,VALID,1002.6,VALID,0,VALID,92.6617,VALID,0,VALID,24.1677,VALID,4,VALID,0,
2010-04-30, 03:27:05,VALID,1002.61,VALID,0,VALID,92.6846,VALID,0,VALID,24.1482,VALID,4,VALID,0,
2010-04-30, 03:28:05,VALID,1002.6,VALID,0,VALID,92.6694,VALID,0,VALID,24.1482,VALID,4,VALID,0,
2010-04-30, 03:29:05,VALID,1002.64,VALID,0,VALID,92.6923,VALID,0,VALID,24.1696,VALID,4,VALID,0,
2010-04-30, 03:30:05,VALID,1002.64,VALID,0,VALID,92.6846,VALID,0,VALID,24.1287,VALID,4,VALID,0,
2010-04-30, 03:31:05,VALID,1002.61,VALID,0,VALID,92.7075,VALID,0,VALID,24.1482,VALID,4,VALID,0,
2010-04-30, 03:32:05,VALID,1002.62,VALID,0,VALID,92.7228,VALID,0,VALID,24.15,VALID,4,VALID,0,
2010-04-30, 03:33:05,VALID,1002.64,VALID,0,VALID,92.7228,VALID,0,VALID,24.15,VALID,4,VALID,0,
2010-04-30, 03:34:05,VALID,1002.63,VALID,0,VALID,92.7457,VALID,0,VALID,24.1287,VALID,4,VALID,0,
2010-04-30, 03:35:05,VALID,1002.63,VALID,0,VALID,92.6923,VALID,0,VALID,24.1305,VALID,13,VALID,0,
2010-04-30, 03:36:05,VALID,1002.62,VALID,0,VALID,92.6923,VALID,0,VALID,24.1305,VALID,24,VALID,0,
2010-04-30, 03:37:05,VALID,1002.61,VALID,0,VALID,92.7151,VALID,0,VALID,24.1305,VALID,21,VALID,0,
2010-04-30, 03:38:05,VALID,1002.6,VALID,0,VALID,92.6617,VALID,0,VALID,24.1092,VALID,5,VALID,0,
2010-04-30, 03:39:05,VALID,1002.61,VALID,0,VALID,92.6694,VALID,0,VALID,24.0915,VALID,4,VALID,0,
2010-04-30, 03:40:05,VALID,1002.59,VALID,0,VALID,92.6923,VALID,0,VALID,24.0915,VALID,11,VALID,0,
2010-04-30, 03:41:05,VALID,1002.63,VALID,0,VALID,92.7075,VALID,0,VALID,24.0701,VALID,9,VALID,0,
2010-04-30, 03:42:05,VALID,1002.6,VALID,0,VALID,92.7228,VALID,0,VALID,24.0897,VALID,360,VALID,0,
2010-04-30, 03:43:05,VALID,1002.62,VALID,0,VALID,92.7533,VALID,0,VALID,24.0915,VALID,352,VALID,0,
2010-04-30, 03:44:05,VALID,1002.62,VALID,0,VALID,92.7304,VALID,0,VALID,24.0701,VALID,350,VALID,0,
2010-04-30, 03:45:05,VALID,1002.64,VALID,0,VALID,92.7304,VALID,0,VALID,24.0506,VALID,350,VALID,0,
2010-04-30, 03:46:05,VALID,1002.65,VALID,0,VALID,92.738,VALID,0,VALID,24.072,VALID,350,VALID,0,
2010-04-30, 03:47:05,VALID,1002.64,VALID,0,VALID,92.7533,VALID,0,VALID,24.0525,VALID,350,VALID,0,
2010-04-30, 03:48:05,VALID,1002.67,VALID,0,VALID,92.7304,VALID,0,VALID,24.0329,VALID,350,VALID,0,
2010-04-30, 03:49:05,VALID,1002.64,VALID,0,VALID,92.7685,VALID,0,VALID,24.0329,VALID,89,VALID,0,
2010-04-30, 03:50:05,VALID,1002.65,VALID,0,VALID,92.7762,VALID,0,VALID,24.0134,VALID,84,VALID,0,